Epoch 2002 Nov. 22.0 TT = JDT 2452600.5 MPC
M 148.24555 (2000.0) P Q
n 0.68759378 Peri. 321.96765 -0.63136558 +0.67819922
a 1.2713001 Node 265.44244 -0.58632896 -0.73485916
e 0.8899437 Incl. 22.16380 -0.50753902 +0.00527558
P 1.43 H 14.6 G 0.15 U 3
From 654 observations at 18 oppositions, 1983-2002, mean residual 0".67.